Location: Cussy
(47.0410°N, 4.6412°E)
Time: 19:19:34
(UTC+00:00)

Cosmos 1943 Rocket - Pass Details

Date: 30 November 2020
Orbit: 811 x 845 km, 71.0° (Epoch: 27 January)

Event Time Altitude Azimuth Distance (km) Brightness Sun altitude
Rises 16:27:38 0° 336° (NNW) 3,356 5.3 -5.8°
Reaches altitude 10° 16:30:12 10° 344° (NNW) 2,424 4.5 -6.2°
Maximum altitude 16:35:27 42° 55° (NE) 1,170 2.5 -7.0°
Drops below altitude 10° 16:40:43 10° 125° (SE) 2,432 4.3 -7.8°
Sets 16:43:17 0° 133° (SE) 3,368 5.1 -8.2°
